Regional Weather Roundup
Issued by NWS Spokane, WA

Home | Current Version | Previous Version | Text Only | Print | Product List | Glossary On
Versions: 1 2 3 4 5 6 7 8 9 10 11 12 13 14 15 16 17 18 19 20 21 22 23 24 25 26 27 28 29 30 31 32 33 34 35 36 37 38 39 40 41 42 43 44 45 46 47 48 49 50
179
NZUS01 KOTX 180957
RWROTX

Eastern Washington/Northern Idaho Roundup
National Weather Service, Spokane WA
200 AM PST SAT NOV 18 2017

Note: "fair" indicated few or no clouds below 12,000 feet with no
significant weather and/or obstructions to visibility.

...Northeast Washington and Northern Idaho Panhandle...

CITY           SKY/WX    TMP DP  RH WIND       PRES   REMARKS
Spokane Intl   MOCLDY    32  31  96 S9        30.27R WCI  24
Spokane Downto MOCLDY    36  32  85 W3        30.30R
Deer Park      MOCLDY    30  28  92 S5        30.28R WCI  25

...Southeast Washington and southern Idaho Panhandle...

CITY           SKY/WX    TMP DP  RH WIND       PRES   REMARKS
Walla Walla    MOCLDY    43  32  65 S10       30.35R
Pullman/Moscow MOCLDY    35  30  82 SW10      30.32S WCI  27
Lowell           N/A     37  35  92 CALM      30.40R

...Columbia Basin...

CITY           SKY/WX    TMP DP  RH WIND       PRES   REMARKS
Ephrata        CLOUDY    36  26  67 CALM      30.27R
Moses Lake     CLOUDY    41  31  67 W7        30.28S
Pasco          CLOUDY    44  36  73 SW8       30.35R
Hermiston      PTCLDY    35  30  82 SE5       30.35R
Pendleton      PTCLDY    35  28  75 S8        30.34R WCI  29

...East Slopes Cascades...

CITY           SKY/WX    TMP DP  RH WIND       PRES   REMARKS
The Dalles     PTCLDY    38  35  89 E3        30.37S
Yakima         MOCLDY    32  27  81 W6        30.32R WCI  26
Ellensburg     PTCLDY    32  28  85 CALM      30.28R
Omak           PTCLDY    31  27  85 SW5       30.26R WCI  26
Sunnyside      PTSUNNY   35  31  85 CALM      30.32S

...Southern British Columbia...

CITY           SKY/WX    TMP DP  RH WIND       PRES   REMARKS

...Western Montana...

CITY           SKY/WX    TMP DP  RH WIND       PRES   REMARKS
Missoula       CLOUDY    35  24  64 CALM      30.25R

...Neighboring Cities...

CITY           SKY/WX    TMP DP  RH WIND       PRES   REMARKS
Seattle        CLOUDY    46  39  76 S12       30.31S
Portland       CLEAR     44  40  85 SE3       30.37S
Boise          CLEAR     30  24  78 SE8       30.39R WCI  22
Great Falls    CLOUDY    33  17  51 SW20      30.04R WCI  21



USA.gov is the U.S. government's official web portal to all federal, state and local government web resources and services.